Погода в Буденновске

Хотите узнать прогноз погоды в Буденновске? Тогда Вам сюда: Погода в Буденновске

Поиск расширенной информации на нашем сайте:

Полезная информация:

Новости сайта



02.01.2020
Опубликован Долгосрочный прогноз погоды по городам России и ближнего зарубежья на январь 2020 года.
Карты: Прогноз на январь и февраль 2020 года, Сравнение прогнозируемой аномалии приземной температуры воздуха на январь 2020 года по разным моделям.




Погода в Буденновске - сегодня

Время (UTC), дата Ветер
(°,м/с) 
Видим.   Явления Облачность Т
(°С)
Тd
(°С)
f(%) Тe
(°С)
Pmin
(гПа)
dP
(гПа)
Po
(мм)
O2
(г/м3)
Тmin Tmax R s Состояние
почвы
21 15.01.22 230 (ЮЗ) 5{11}  4000 м  дымка  ясно 
-2.4 -4.4 86 -6  1007.3  1.7  743  302           
00 16.01.22 200 (Ю) 10 км    3/3 600 м 
[Sc]
-3.2 -5.4 85 -5  1009  1.7  744  304           
03 16.01.22 260 (З) 10 км    9/9 600 м 
[Sc]
-1.5 -4.1 82 -5  1009.9  745  302  -4.3      <0.5  сухой снег
50-90% 
06 16.01.22 250 (З) 6{10}  4000 м  в посл. час ливневой снег  10/10 600 м кучево-дожд. 
[Cb calv]
-0.9 -2.8 87 -5  1012.2  2.5  746  302           
09 16.01.22 280 (З) 8-11{11}  10 км    8/5 600 м средняя 
[Sc|Ac trans]
+1.7 -2.4 74 -2  1013.4  1.3  747  300           
12 16.01.22 270 (З) 7{13}  10 км  {ливн. осадки}  4/4 600 м 
[Cu med, cong]
+0.8 -3.7 72 -3  1015.1  1.5  749  301           
15 16.01.22 250 (З) 4{11}  10 км    3/3 600 м 
[Sc]
-1.6 -4.3 82 -4  1017.8  2.6  750  305    +1.7  0.0     
18 16.01.22 270 (З) 10 км    8/8 600 м 
[Sc]
-2.7 -5.9 79 -6  1019.6  1.8  752  307           
21 16.01.22 250 (З) 10 км    10/10 600 м 
[Sc]
-3.4 -5.8 83 -7  1021.1  1.2  753  308           
00 17.01.22 250 (З) 10 км    6/4 600 м средняя 
[Sc|Ac trans]
-3.9 -6.3 83 -7  1021.8  0.7  753  309           
03 17.01.22 250 (З) 4000 м  дымка  3/3 600 м средняя 
[Sc|Ac trans]
-4.1 -5.9 87 -6  1021.8  753  309  -5         
06 17.01.22 190 (Ю) 10 км    8/3 600 м средняя 
[Sc|Ac trans]
-3.9 -6.2 84 -6  1023.2  1.4  754  309  -6.3         
09 17.01.22 230 (ЮЗ) 10 км    3/3 300 м 
[Sc]
+0.6 -4.5 69 -2  1022.4  -0.5  754  304           
12 17.01.22 220 (ЮЗ) 10 км    6/4 600 м средняя 
[Sc|Ac trans]
+0.9 -5 65 -1  1020.4  -1.9  752  303           
15 17.01.22 160 (Ю) 10 км    9/9 600 м 
[Sc]
-0.4 -4.2 75 1019.2  -1.2  752  304    +1.9       
18 17.01.22 160 (Ю) 10 км    10/10 600 м 
[Sc]
-0.5 -5.3 70 1017.8  -1.4  751  304           
21 17.01.22 180 (Ю) 10 км    3/3 600 м 
[Sc]
-3.4 -7.3 74 -5  1015.6  -2.4  749  306           
00 18.01.22 160 (Ю) 10 км    4/1 600 м верхняя 
[Sc|Ci fib]
-4.8 -8.1 78 -4  1014.2  -1.4  748  307           
03 18.01.22 тихо ()   4000 м  дымка  10/10 600 м 
[Sc]
-6 -8.1 85 -6  1013.5  -0.8  746  308  -6.8         
06 18.01.22 тихо ()   10 км    10/3 600 м средняя 
[Sc|As trans]
-3.1 -7.2 73 -3  1011.5  -1.4  746  305           
09 18.01.22 110 (В) 10 км    10/0 средняя 
[As trans]
+0.4 -3.8 73 1009.4  -2.3  744  300           
12 18.01.22 120 (ЮВ) 10 км    10/3 600 м средняя 
[Sc|As trans]
+0.7 -2.7 78 1008.3  -0.9  744  299           
15 18.01.22 310 (СЗ) 4000 м  дымка  9/8 600 м средняя 
[Sc|Ac trans]
-0.6 -2.5 87 1009.4  0.9  744  301    +1       
18 18.01.22 300 (СЗ) 4000 м  дымка  10/0 верхняя 
[Cs]
-0.9 -3 86 -3  1011.2  1.8  746  302           
21 18.01.22 310 (СЗ) 4{11}  10 км    6/0 верхняя 
[Ci fib]
-0.4 -2.9 83 -3  1013.5  2.3  747  302           
Время (UTC), дата Ветер
(°,м/с) 
Видим.   Явления Облачность Т
(°С)
Тd
(°С)
f(%) Тe
(°С)
Pmin
(гПа)
dP
(гПа)
Po
(мм)
O2
(г/м3)
Тmin Tmax R s Состояние
почвы

Для получения пояснительной информации подведите курсор к названию столбца.

ПОГОДА в Буденновске - архив

Всё, что Вы хотите узнать о погоде в Буденновске - удобно и подробно!

Выберите нужную дату (начиная с 1 января 2019* года) и нажмите кнопку "Найти".
Будут отображены архивные сводки погоды по пункту Буденновск, начиная с указанной даты.


Отображать данные в формате CSV (для использования в таблицах Excel)


Внимание! Наш архив погоды предназначен исключительно для личного некоммерческого использования в познавательных целях. Если Вам необходимы официальные справки о состоянии погоды (для производственных, юридических, коммерческих и т.п. целей), обращайтесь в органы Росгидромета.

*Примечание: данная дата относится к архиву по метеостанциям СССР (Россия, СНГ, Балтия).
Архив по метеостанциям Зарубежной Европы и Азии (кроме Китая) хранится 10 дней, по другим регионам земного шара (Китай, Африка, Америка, Австралия, Океания) - 1 день.

Буденновск - район местоположения метеостанции


Название, широта, долгота, высота метеостанции:
Буденновск (Прикумск) 44.8°ш. 44.1°д. 136 м над ур. моря [Российская Федерация]

Дополнительная информация

В oтличие oт бoльшинства пoгoдных сайтoв мы публикуем пoдрoбную метеoинфoрмацию в детальнoм прoфессиoнальнoм фoрмате.

Характеристики температуры и влажнoсти вoздуха измеряются на высoте 2 м в тени вдали oт зданий и деревьев.
Скoрoсть ветра измеряется на высoте 10 м (на урoвне рoста челoвека скoрoсть ветра ниже в 1.5-2 раза). Если метеoстанция нахoдится в гoрoде или в лесу, тo скoрoсть ветра занижена на 2-4 м/с пo сравнению с oткрытым местoм. Скoрoсть ветра над акватoриями крупных рек и oзёр, а также на вершинах хoлмoв на 2-5 м/с выше, чем в oбычных услoвиях.
Атмoсфернoе давление в разных тoчках местнoсти мoжет значительнo oтличаться oт давления на метеoстанции, в зависимoсти oт услoвий рельефа (при пoдъёме на 10 м давление пoнижается примернo на 1 мм рт.ст.).